Regional Weather Roundup
Issued by NWS

Home | Current Version | Previous Version | Graphics & Text | Print | Product List | Glossary On
Versions: 1 2 3 4 5 6 7 8 9 10 11 12 13 14 15 16 17 18 19 20 21 22 23 24 25 26 27 28 29 30 31 32 33 34 35 36 37 38 39 40 41 42 43 44 45 46 47 48 49 50
000
ASUS43 KMKX 190411
RWRWI

WISCONSIN REGIONAL WEATHER ROUNDUP
NATIONAL WEATHER SERVICE MILWAUKEE/SULLIVAN WI
1000 PM CST SAT FEB 18 2017

NOTE: "FAIR" INDICATES FEW OR NO CLOUDS BELOW 12,000 FEET WITH NO
SIGNIFICANT WEATHER AND/OR OBSTRUCTIONS TO VISIBILITY.

WIZ001-002-006>008-014>016-023>028-190500-
NORTHWEST WISCONSIN

CITY           SKY/WX    TMP DP  RH WIND       PRES   REMARKS
SUPERIOR ARPT  CLOUDY    42  29  61 SW6       29.81R
ASHLAND        MOCLDY    42  29  59 W8        29.80R
HAYWARD        CLOUDY    35  28  75 CALM      29.81S
SIREN          CLOUDY    44  34  68 SW6       29.83R
CUMBERLAND     CLOUDY    36  32  87 S6        29.83S WCI  31
RICE LAKE      CLOUDY    36  32  85 CALM      29.85S
CHETEK         CLOUDY    37  33  84 SW3       29.84S
LADYSMITH      PTCLDY    44  33  64 W3        29.85R
EAU CLAIRE     MOCLDY    40  34  79 SW5       29.85R
MENOMONIE      MOCLDY    37  32  83 CALM      29.86R
NEW RICHMOND   CLOUDY    37  32  82 CALM      29.85R
OSCEOLA        CLOUDY    36  31  85 CALM      29.87S
$$

WIZ003>005-009-010-017-018-190500-
NORTH CENTRAL WISCONSIN

CITY           SKY/WX    TMP DP  RH WIND       PRES   REMARKS
MANITOWISH WTR CLEAR     40  29  63 W5        29.79R
ARBOR VITAE    PTCLDY    43  30  59 W5        29.80R
WOODRUFF       PTCLDY    43  30  59 W5        29.80R
RHINELANDER    MOCLDY    41  31  67 W10       29.80R
EAGLE RIVER    PTCLDY    42  26  53 W8        29.78R
LAND O LAKES   CLOUDY    44  28  51 W10       29.78R
PHILLIPS       CLOUDY    43  32  64 CALM      29.81R
TOMAHAWK       MOCLDY    44  30  58 W6        29.82R
MEDFORD        CLOUDY    40  31  71 W7        29.83R
MERRILL        NOT AVBL
$$

WIZ029-030-035-036-043>047-190500-
CENTRAL WISCONSIN

CITY           SKY/WX    TMP DP  RH WIND       PRES   REMARKS
WAUSAU         PTCLDY    41  32  70 NW3       29.81R
MOSINEE        PTCLDY    41  32  70 W7        29.83R
MARSHFIELD     PTCLDY    42  31  64 W7        29.83R
STEVENS POINT  PTCLDY    42  30  62 CALM      29.83R
WAUPACA        CLOUDY    41  29  63 CALM      29.82R
WAUTOMA        CLOUDY    35  30  82 CALM      29.84R
WISC RAPIDS    PTCLDY    36  29  75 SW3       29.85R
CAMP DOUGLAS   CLEAR     31  28  88 W5        29.85R WCI  26
$$

WIZ011>013-019>022-031-037>040-048>050-190500-
NORTHEAST WISCONSIN

CITY           SKY/WX    TMP DP  RH WIND       PRES   REMARKS
ANTIGO         MOCLDY    38  31  73 W6        29.81R WCI  34
SHAWANO        CLOUDY    45  32  59 SW5       29.80R
OCONTO         PTCLDY    41  30  66 W6        29.78R
STURGEON BAY   PTCLDY    46  31  55 W9        29.77R
GREEN BAY      CLOUDY    43  33  68 W9        29.80R
MANITOWOC      CLOUDY    48  30  49 MISG      29.79R
APPLETON       PTCLDY    39  27  60 W10       29.79R WCI  32
CLINTONVILLE   PTCLDY    41  30  65 CALM      29.81R
OSHKOSH        PTCLDY    45  30  55 W3        29.81R
$$

WIZ032>034-041-042-053>061-190500-
SOUTHWEST WISCONSIN

CITY           SKY/WX    TMP DP  RH WIND       PRES   REMARKS
LA CROSSE      PTCLDY    36  30  79 CALM      29.87R
SPARTA         CLEAR     30  27  88 CALM      29.88R
VIROQUA        PTCLDY    44  31  60 CALM      29.86R
BOSCOBEL       CLEAR     33  30  88 CALM      29.87R
PRAIRIE DU CHI CLEAR     35  32  90 CALM      29.87R
PLATTEVILLE    CLEAR     42  39  91 CALM      29.85R
$$

WIZ056-057-062-063-064-067-068-190500-
SOUTH CENTRAL WISCONSIN

CITY           SKY/WX    TMP DP  RH WIND       PRES   REMARKS
REEDSBURG      CLOUDY    36  31  82 CALM      29.85R
BARABOO/DELLS  CLOUDY    38  29  70 S3        29.85R
LONE ROCK      CLEAR     32  29  88 CALM      29.86R
MINERAL POINT  CLEAR     45  41  87 NW3       29.85R
MADISON        PTCLDY    34  32  92 CALM      29.83R
MIDDLETON      CLEAR     33  33  97 CALM      29.84R
WATERTOWN      PTCLDY    34  34 100 CALM      29.83R
MONROE         CLEAR     52  41  66 NW10      29.83R
JANESVILLE     CLEAR     41  36  81 CALM      29.83R
$$

WIZ051-052-058>065-066-070>072-190500-
SOUTHEAST WISCONSIN

CITY           SKY/WX    TMP DP  RH WIND       PRES   REMARKS
MILWAUKEE      CLEAR     44  37  76 CALM      29.82R
WAUKESHA         N/A     36  34  93 W3        29.83R
MILWAUKEE/TIMM CLEAR     41  36  81 CALM      29.82R
RACINE         CLEAR     49  38  65 W5        29.82R
KENOSHA        CLEAR     43  35  73 SW5       29.81R
FOND DU LAC    CLOUDY    47  28  47 W7        29.81R
SHEBOYGAN      CLOUDY    46  30  53 W8        29.80R
WEST BEND      CLOUDY    34  32  93 CALM      29.81R
JUNEAU         CLOUDY    41  32  70 W3        29.84R
$$

LSZ147-162-190500-
LAKE SUPERIOR

STATION/POSITION TIME  TEMP    WIND        PRES    WAVE
                       AIR SEA DIR/SP/G            HT/PER
                 (UTC) (F)     (DEG/KT/KT) (MB)    (FT/S)
DEVILS ISLAND    0400   40     240/ 20/ 23 1008.6R
PORT WING        0330   48     240/ 11/ 15 1009.1R
SAXON HARBOR     0340   49     210/  6/ 11 1008.5R
$$

LMZ867-665-643>646-190500-
LAKE MICHIGAN

STATION/POSITION TIME  TEMP    WIND        PRES    WAVE
                       AIR SEA DIR/SP/G            HT/PER
                 (UTC) (F)     (DEG/KT/KT) (MB)    (FT/S)
CHAMBERS ISLAND  0340   42     200/  5/  7 1007.1R
NORTHPORT PIER   0340   49     270/  4/  7 1007.1R
SISTER BAY       0335   44     250/ 12/ 12   N/A
KEWAUNEE LAKESHO 0348   48     290/  8/ 12 1007.4R
SHEBOYGAN LAKESH 0400   52     280/ 10/ 14 1008.8R
PORT WASHINGTON  0330   44     290/  3/  4 1010.2R
MILWAUKEE LAKESH 0330   53     290/  7/  8   N/A
KENOSHA   LAKESH 0400   50      CALM  /  2 1009.8
$$

TC  - TEMPERATURE IN CELSIUS
VSB - VISIBILITY IN STATUTE MILES
WCI - WIND CHILL INDEX
HX  - HEAT INDEX





USA.gov is the U.S. government's official web portal to all federal, state and local government web resources and services.